CAPE
nan nan nan nan nan nan nan nan nan nan nan nan nan nan nan nan nan nan nan nan nan nan nan nan nan nan nan nan nan nan 1 16 36 36 53 66 79 79 86 92 92 96 100 106 106 107 113 119 119 136 148 154 167 167 169 167 167 170 173 174 174 188 211 244 244 287 298 327 387 387 399 399 362 362 320 294 279 279 254 235 235 215 207 209 209 213
nan nan nan nan nan nan nan nan nan nan nan nan nan nan nan nan nan nan nan nan nan nan nan nan nan nan nan nan nan nan 4 26 49 49 67 83 93 93 99 104 104 105 108 104 104 103 107 118 118 134 145 153 163 163 160 162 162 170 166 174 174 183 204 239 239 267 279 319 357 357 370 343 300 300 271 255 233 233 209 199 199 199 202 215 215 227
nan nan nan nan nan nan nan nan nan nan nan nan nan nan nan nan nan nan nan nan nan nan nan nan nan nan nan nan nan nan 6 35 60 60 78 98 107 107 110 109 109 105 102 110 110 112 113 124 124 140 157 166 173 173 174 176 176 177 177 179 179 188 211 223 223 233 263 280 299 299 305 277 251 251 231 219 201 201 183 184 184 195 216 234 234 251
nan nan nan nan nan nan nan nan nan nan nan nan nan nan nan nan nan nan nan nan nan nan nan nan nan nan nan nan nan nan 10 38 67 67 95 107 117 117 111 105 105 102 103 111 111 122 129 147 147 152 171 178 193 193 194 200 200 192 184 182 182 189 209 226 226 221 223 248 257 257 249 225 211 211 193 169 169 169 169 194 194 229 251 264 264 295
nan nan nan nan nan nan nan nan nan nan nan nan nan nan nan nan nan nan nan nan nan nan nan nan nan nan nan nan nan nan 11 46 77 77 107 117 110 110 102 99 99 104 113 120 120 132 151 159 159 171 177 197 211 211 211 214 214 193 193 186 186 201 215 219 219 235 251 243 224 224 205 187 174 174 168 167 167 167 179 210 210 248 286 307 307 334
nan nan nan nan nan nan nan nan nan nan nan nan nan nan nan nan nan nan nan nan nan nan nan nan nan nan nan nan nan nan 18 61 89 89 102 98 93 93 94 102 102 109 116 134 134 141 160 168 168 189 195 209 222 222 214 205 205 211 216 198 198 198 206 222 222 233 232 218 192 192 175 167 167 167 165 171 170 170 183 211 211 281 313 340 340 357
nan nan nan nan nan nan nan nan nan nan nan nan nan nan nan nan nan nan nan nan nan nan nan nan nan nan nan nan nan nan 21 41 71 71 73 75 80 80 91 98 98 103 119 136 136 148 161 170 170 185 199 213 235 235 252 259 259 252 238 207 207 183 196 215 215 224 223 196 179 179 157 156 162 162 174 173 172 172 196 231 231 297 335 355 355 364
nan nan nan nan nan nan nan nan nan nan nan nan nan nan nan nan nan nan nan nan nan nan nan nan nan nan nan nan nan nan nan nan nan nan nan nan 25 25 58 87 87 105 116 126 126 137 151 159 159 172 193 224 249 249 246 242 242 202 184 165 165 167 189 211 211 218 205 184 169 169 154 159 165 165 177 196 207 207 239 265 265 291 322 322 322 310
nan nan nan nan nan nan nan nan nan nan nan nan nan nan nan nan nan nan nan nan nan nan nan nan nan nan nan nan nan nan nan nan nan nan nan nan nan nan 23 81 81 101 115 120 120 127 133 146 146 166 193 217 246 246 236 203 203 167 154 147 147 169 195 216 216 217 202 187 171 171 169 168 179 179 190 209 220 220 228 225 225 246 271 271 271 276
nan nan nan nan nan nan nan nan nan nan nan nan nan nan nan nan nan nan nan nan nan nan nan nan nan nan nan nan nan nan nan nan 4 4 42 23 95 95 70 63 63 60 97 108 108 120 127 147 147 170 196 212 223 223 206 166 166 150 141 152 152 186 204 218 218 216 206 189 173 173 177 181 193 193 204 223 235 235 220 226 226 213 216 229 229 242
nan nan nan nan nan nan nan nan nan nan nan nan nan nan nan nan nan nan nan nan nan nan nan nan nan nan nan nan nan nan nan nan nan nan nan 10 52 52 71 63 63 72 82 94 94 107 126 149 149 166 177 181 178 178 154 135 135 138 154 171 171 203 216 219 219 215 196 184 179 179 183 194 198 198 209 221 220 220 217 215 215 192 189 191 191 211
nan nan nan nan nan nan nan nan nan nan nan nan nan nan nan nan nan nan nan nan nan nan nan nan nan nan nan nan nan nan nan nan nan nan nan nan 2 2 7 1 1 11 22 57 57 78 121 158 158 151 143 131 145 145 130 114 114 146 169 192 192 207 215 209 209 190 178 167 174 174 183 199 203 203 214 217 221 221 202 186 186 172 170 179 179 199
nan nan nan nan nan nan nan nan nan nan nan nan nan nan nan nan nan nan nan 3 3 0 nan nan nan nan nan nan nan nan nan 0 3 3 4 nan nan nan nan nan nan nan nan nan nan nan 56 124 124 118 126 110 122 122 127 132 132 166 181 205 205 206 194 180 180 159 154 166 174 174 183 190 200 200 210 197 192 192 180 173 173 166 169 177 177 192
nan nan nan nan nan nan nan nan nan nan nan nan nan nan nan nan nan nan nan 0 0 nan nan nan nan nan nan nan nan nan 11 33 16 16 1 nan nan nan nan nan nan nan nan nan nan nan 26 50 50 17 74 75 87 87 110 141 141 170 177 179 179 180 169 153 153 141 148 159 173 173 179 187 189 189 183 177 173 173 160 160 160 164 167 175 175 190
nan nan nan nan nan nan nan nan nan nan 2 nan nan nan 0 nan nan nan nan nan nan nan nan nan nan nan nan nan nan nan 36 26 1 1 nan nan nan nan nan nan nan nan nan nan nan nan 19 14 14 nan nan 1 23 23 65 96 96 147 147 149 149 149 143 141 141 141 147 158 169 169 175 176 170 170 163 158 153 153 154 152 152 155 164 171 171 191
nan nan nan nan nan nan nan nan nan nan 0 0 nan nan nan nan nan nan 1 0 0 nan nan nan nan nan nan 2 20 20 10 3 nan nan nan nan nan nan nan nan nan nan nan nan nan 1 2 nan nan nan nan 4 64 64 85 97 97 131 133 145 145 144 137 142 142 141 145 149 159 159 152 152 145 145 139 141 142 142 147 143 143 150 158 165 165 184
nan nan nan nan nan nan nan nan nan nan 1 nan nan nan 2 3 3 3 1 0 0 1 3 2 2 0 nan 0 12 12 nan nan nan nan nan nan nan nan nan nan nan 14 8 4 4 0 0 nan nan nan nan 16 63 63 69 92 92 111 130 135 135 139 131 135 135 133 137 140 144 144 136 130 127 127 128 129 128 128 131 132 132 135 146 159 159 176
0 nan 0 0 0 nan nan nan 4 4 10 9 7 7 5 2 0 0 4 4 4 4 4 4 4 4 7 11 6 6 nan nan nan nan nan 9 nan nan nan nan nan 18 15 9 9 1 nan nan nan nan nan 29 51 51 63 93 93 112 125 124 124 126 118 122 122 119 126 123 121 121 113 105 104 104 110 116 120 120 126 128 128 130 140 158 158 169
1 nan nan 3 3 8 5 8 17 17 20 21 17 17 6 1 0 0 2 4 4 7 4 9 9 15 21 29 nan nan nan nan nan nan 9 18 6 6 nan 5 5 13 4 nan nan nan nan nan nan nan 0 20 39 39 62 92 92 111 112 115 115 108 104 107 107 105 106 101 97 97 92 86 90 90 99 108 110 110 116 122 122 133 138 151 151 168
nan nan 1 9 9 10 14 24 29 29 28 32 24 24 18 9 3 3 3 6 6 16 22 20 20 25 19 2 nan nan nan nan nan nan 6 13 7 7 nan 1 1 nan nan nan nan nan nan nan nan nan nan 1 33 33 62 81 81 88 93 92 92 93 89 88 88 86 87 84 81 81 77 80 86 86 97 99 110 110 115 122 122 128 142 152 152 165
nan nan 10 13 13 9 13 19 21 21 33 32 19 19 10 2 nan nan 4 13 13 24 24 14 14 6 nan nan nan nan nan nan nan nan 2 nan nan nan nan nan nan nan nan nan nan nan nan nan nan nan nan 1 25 25 48 65 65 71 74 78 78 77 69 72 72 72 72 69 67 67 67 75 85 85 91 96 102 102 106 115 115 125 134 145 145 154
nan 2 4 6 6 7 14 9 19 19 22 11 2 2 nan nan nan nan 18 22 22 17 2 0 0 nan nan nan nan nan nan nan nan nan nan 0 nan nan nan nan nan nan nan nan nan nan nan nan nan nan nan 6 20 20 41 48 48 58 60 61 61 64 64 61 61 59 58 57 60 60 62 69 75 75 83 87 92 92 96 105 105 109 123 132 132 141
nan nan nan nan nan 3 6 3 1 1 3 0 nan nan nan nan nan nan 19 13 13 0 nan nan nan nan nan nan nan nan nan nan nan nan nan 5 8 8 nan nan nan nan nan nan nan nan nan nan nan nan nan 12 21 21 35 48 48 54 55 55 55 56 55 52 52 49 49 52 55 55 60 62 69 69 73 77 82 82 85 88 88 95 102 110 110 120
nan nan nan nan nan nan nan nan nan nan nan nan nan nan nan nan nan nan 0 nan nan nan nan nan nan nan nan nan nan nan nan nan nan nan nan 13 3 3 nan nan nan nan nan nan nan nan nan nan nan nan nan 8 24 24 35 42 42 47 49 47 47 45 41 43 43 44 45 49 51 51 56 59 62 62 63 69 73 73 72 79 79 89 94 100 100 102
nan nan nan nan nan nan nan nan nan nan nan nan nan nan nan nan nan nan nan nan nan nan nan nan nan nan nan nan nan nan nan nan nan nan 1 8 0 0 nan nan nan nan nan nan nan nan nan nan nan nan nan nan 20 20 30 37 37 39 36 35 35 35 35 36 36 36 39 42 45 45 49 54 56 56 55 61 60 60 63 70 70 82 91 95 95 93
nan nan nan nan nan 9 7 6 18 18 nan nan nan nan nan nan nan nan nan nan nan nan nan nan nan nan nan nan nan nan nan nan 0 0 6 8 nan nan nan nan nan nan nan nan nan nan nan nan nan nan nan nan 12 12 23 27 27 29 27 26 26 26 26 26 26 29 32 36 39 39 42 44 48 48 51 54 56 56 62 69 69 81 87 82 82 70
0 2 6 10 10 12 14 17 25 25 48 49 17 17 nan nan nan nan nan nan nan nan nan 1 1 nan nan 0 nan nan nan 6 3 3 2 8 0 0 nan nan nan nan nan nan nan nan nan nan nan nan nan nan nan nan 14 19 19 19 19 19 19 19 20 21 21 25 29 30 34 34 38 40 45 45 48 52 60 60 67 72 72 79 77 69 69 55
1 3 7 11 11 11 14 19 27 27 39 49 55 55 nan nan nan nan 1 5 5 0 1 2 2 1 1 1 nan nan nan 12 0 0 nan nan 2 2 nan nan nan nan nan nan nan nan 1 nan nan nan nan nan nan nan 1 10 10 10 10 11 11 10 13 16 16 20 25 27 30 30 35 40 45 45 51 55 63 63 71 77 77 79 67 41 41 4
nan 0 3 7 7 7 6 10 21 21 33 40 43 43 nan nan nan nan 9 3 3 1 3 3 3 2 3 2 nan nan nan 11 nan nan nan nan 3 3 nan nan nan nan nan nan nan nan nan nan nan nan nan nan nan nan nan 2 2 3 4 4 4 5 7 13 13 17 21 25 27 27 32 38 43 43 50 56 62 62 71 73 73 71 49 19 19 3
nan nan nan nan nan 1 nan nan 9 9 27 31 33 33 8 nan nan nan 3 1 1 3 4 4 4 7 8 nan nan nan nan nan nan nan nan 2 3 3 nan nan nan nan nan nan nan nan nan nan nan nan nan nan nan nan nan nan nan nan nan 1 1 1 4 9 9 14 16 19 24 24 29 35 41 41 47 51 58 58 66 71 71 52 17 3 3 2
nan nan nan nan nan nan nan nan nan nan 8 22 23 23 0 nan nan nan nan 4 4 6 8 8 8 9 10 6 2 2 nan nan nan nan 0 8 2 2 nan nan nan nan nan nan nan nan nan nan nan nan nan nan nan nan nan nan nan nan nan nan nan nan 2 7 7 10 13 16 20 20 25 32 36 36 41 46 50 50 55 65 65 50 12 3 3 1
nan nan nan nan nan nan nan nan nan nan nan nan nan nan 1 12 10 10 4 0 0 3 8 9 9 7 6 8 8 8 6 nan nan nan 8 7 8 8 3 2 2 2 0 nan nan 0 nan nan nan nan nan nan nan nan nan nan nan nan nan nan nan nan nan 1 1 2 3 8 14 14 20 23 26 26 29 30 35 35 40 43 43 47 18 4 4 3
nan nan nan nan nan nan nan nan nan nan nan nan nan nan nan 8 30 30 9 nan nan 0 2 3 3 1 0 3 6 6 nan nan 0 0 28 8 13 13 8 6 6 5 1 1 1 1 0 nan nan nan nan nan nan nan nan nan nan nan nan nan nan nan nan nan nan nan nan 1 3 3 15 18 23 23 25 26 30 30 36 38 38 40 39 5 5 6
nan nan nan nan nan nan nan nan nan nan nan nan nan nan 5 2 0 0 1 nan nan nan nan 0 0 0 1 2 2 2 nan nan 4 4 33 14 16 16 14 10 10 9 6 3 3 2 nan 0 0 0 nan nan nan nan nan nan nan nan nan nan nan nan nan nan nan nan nan nan nan nan nan 1 13 13 14 22 26 26 31 34 34 33 33 21 21 12
nan nan nan nan nan nan nan nan nan nan nan nan 1 1 4 nan nan nan nan nan nan nan nan nan nan nan 0 0 1 1 nan nan 2 2 35 20 16 16 16 12 12 11 10 6 6 2 1 2 2 4 0 nan nan nan nan nan nan nan nan nan nan nan nan nan nan nan nan nan nan nan nan nan nan nan 3 14 22 22 26 25 25 24 25 30 30 24
nan nan nan nan nan nan nan nan nan nan nan nan 0 0 nan nan nan nan nan nan nan nan nan nan nan nan nan nan nan nan nan nan 0 0 25 8 8 8 15 13 13 14 13 8 8 5 3 2 2 3 3 nan nan nan nan nan nan nan nan nan nan nan nan nan nan nan nan nan nan nan nan nan nan nan 1 16 19 19 18 16 16 16 16 21 21 27
nan nan nan nan nan nan nan nan nan nan nan nan nan nan nan nan nan nan nan nan nan nan nan nan nan nan nan nan nan nan nan nan nan nan 2 1 0 0 6 9 9 14 10 8 8 7 6 2 2 2 0 nan nan nan nan nan nan nan nan nan nan nan nan nan nan nan nan nan nan nan nan nan nan nan 1 14 8 8 8 9 9 9 12 14 14 19
nan 0 nan nan nan nan nan nan nan nan nan nan nan nan nan nan nan nan nan nan nan nan nan nan nan nan nan nan nan nan nan nan nan nan nan nan nan nan nan nan nan 0 2 4 4 7 6 3 3 0 nan nan nan nan nan nan nan nan nan nan nan nan nan nan nan nan nan nan nan nan 1 0 nan nan nan nan nan nan nan nan nan 1 5 6 6 10
0 0 nan nan nan nan nan nan nan nan nan nan nan nan nan nan nan nan nan nan nan nan nan nan nan nan nan nan nan nan nan nan nan nan nan nan nan nan nan nan nan nan nan nan nan 1 4 2 2 0 0 nan nan nan nan nan nan nan nan nan nan nan nan nan nan nan nan nan 0 0 nan nan nan nan nan nan nan nan nan nan nan nan nan nan nan 2
1 nan nan nan nan nan nan nan nan nan nan nan nan nan nan nan nan nan nan nan nan nan nan nan nan nan nan nan nan nan nan nan nan nan nan nan nan nan nan nan nan nan nan nan nan nan 0 0 0 1 2 nan nan nan nan nan nan nan nan nan nan nan nan nan nan nan nan nan nan nan nan nan nan nan nan nan nan nan nan nan nan nan nan nan nan nan
3 0 nan nan nan nan nan nan nan nan 0 0 nan nan nan nan nan nan nan nan nan nan nan nan nan nan nan nan nan nan nan nan nan nan nan nan nan nan nan nan nan nan nan nan nan nan 0 nan nan 0 nan nan nan nan nan nan nan nan 1 nan nan nan nan nan nan nan nan nan nan nan nan nan nan nan nan nan nan nan nan nan nan nan nan nan nan nan
6 0 nan nan nan nan nan nan nan nan nan nan nan nan nan nan nan nan nan nan nan nan nan nan nan nan nan nan nan nan nan nan nan nan nan nan nan nan nan nan nan nan nan nan nan nan nan 0 0 nan nan nan nan nan nan nan nan nan nan nan nan nan nan nan nan nan nan nan nan nan 1 nan nan nan nan nan nan nan nan nan nan nan nan nan nan nan
1 nan nan nan nan nan nan nan nan nan nan nan nan nan nan nan nan nan nan nan nan nan nan nan nan nan nan nan nan nan nan nan nan nan nan nan nan nan nan nan nan nan nan nan nan nan nan nan nan nan nan nan nan nan nan nan nan nan nan nan nan nan nan nan nan nan nan nan nan nan nan nan nan nan nan nan nan nan nan nan nan 0 nan nan nan nan
0 nan nan nan nan nan nan nan nan nan nan nan nan nan nan nan nan nan nan nan nan nan nan nan nan nan nan nan nan nan nan nan nan nan nan nan nan nan nan nan nan nan nan nan nan nan nan nan nan nan nan nan nan nan nan nan nan nan nan nan nan nan nan nan nan nan nan nan nan nan nan nan nan nan nan nan nan nan nan nan nan nan nan nan nan nan
nan nan nan nan nan nan nan nan nan nan nan nan nan nan nan nan nan nan nan nan nan nan nan nan nan nan nan nan nan nan nan nan nan nan nan nan nan nan nan nan nan nan nan nan nan nan nan nan nan nan nan nan nan nan nan nan nan nan nan 1 1 nan nan nan nan nan nan nan nan nan nan nan nan nan nan nan nan nan nan nan nan nan nan nan nan nan
nan nan nan nan nan nan 1 0 nan nan nan nan nan nan nan nan nan nan nan nan nan nan nan nan nan nan nan nan nan nan nan nan nan nan nan nan nan nan nan nan nan nan nan nan nan nan nan nan nan nan nan nan nan nan nan nan nan nan nan 0 0 nan nan nan nan nan nan nan nan nan nan nan nan nan nan nan nan nan nan nan nan nan nan nan nan nan
nan nan nan nan nan nan nan nan nan nan nan nan 1 1 nan nan nan nan nan nan nan nan nan nan nan nan nan nan nan nan nan nan nan nan nan nan nan nan nan nan nan nan nan nan nan nan nan nan nan nan nan nan nan nan nan nan nan nan nan nan nan nan nan nan nan nan nan nan nan nan nan nan nan nan nan nan nan nan nan nan nan nan nan nan nan nan
nan nan nan nan nan nan nan nan nan nan nan nan nan nan nan nan nan nan nan nan nan nan nan nan nan nan nan nan nan nan nan nan nan nan nan nan nan nan nan nan nan nan nan nan nan nan nan nan nan nan nan nan nan nan nan nan nan nan nan nan nan nan nan nan nan nan nan nan nan nan nan nan nan nan nan nan nan nan nan nan nan nan nan nan nan nan
nan nan nan nan nan nan nan nan nan nan nan nan nan nan nan nan 1 1 nan nan nan nan nan nan nan nan nan nan nan nan nan nan nan nan nan nan nan nan nan nan nan nan nan nan nan nan nan nan nan nan nan nan nan nan nan nan nan nan nan nan nan nan nan nan nan nan nan nan nan nan nan nan nan nan nan nan nan nan nan nan nan nan nan nan nan nan
nan nan nan nan nan nan nan nan nan nan nan nan nan nan nan nan nan nan nan nan nan nan nan nan nan nan nan nan nan nan nan nan nan nan nan nan nan nan nan nan nan nan nan nan nan nan nan nan nan nan nan nan nan nan nan nan nan nan nan nan nan nan nan nan nan nan nan nan nan nan nan nan nan nan nan nan nan nan nan nan nan nan nan nan nan nan
nan nan nan nan nan nan nan nan nan nan nan nan nan nan nan nan nan nan nan nan nan nan nan nan nan nan nan nan nan nan nan nan nan nan nan nan nan nan nan nan nan nan nan nan nan nan nan nan nan nan nan 1 nan nan nan nan nan nan nan nan nan nan nan nan nan nan nan nan nan nan nan nan nan nan nan nan nan nan nan nan nan nan nan nan nan nan
CIN
nan nan nan nan nan nan nan nan nan nan nan nan nan nan nan nan nan nan nan nan nan nan nan nan nan nan nan nan nan nan -19 -6 -0 -0 -0 -0 -0 -0 -0 -0 -0 -0 -0 -0 -0 -0 -0 -0 -0 -0 -0 -0 -0 -0 -0 -0 -0 -0 -0 -0 -0 -0 -0 -0 -0 -0 -0 -0 -0 -0 -0 -0 -0 -0 -0 -0 -0 -0 -0 -0 -0 -0 -0 -0 -0 -0
nan nan nan nan nan nan nan nan nan nan nan nan nan nan nan nan nan nan nan nan nan nan nan nan nan nan nan nan nan nan -25 -7 -0 -0 -0 -0 -0 -0 -0 -0 -0 -0 -0 -0 -0 -0 -0 -0 -0 -0 -0 -0 -0 -0 -0 -0 -0 -0 -0 -0 -0 -0 -0 -0 -0 -0 -0 -0 -0 -0 -0 -0 -0 -0 -0 -0 -0 -0 -0 -0 -0 -0 -0 -0 -0 -0
nan nan nan nan nan nan nan nan nan nan nan nan nan nan nan nan nan nan nan nan nan nan nan nan nan nan nan nan nan nan -32 -9 -1 -1 -0 -0 -0 -0 -0 -0 -0 -0 -0 -0 -0 -0 -0 -0 -0 -0 -0 -0 -0 -0 -0 -0 -0 -0 -0 -0 -0 -0 -0 -0 -0 -0 -0 -0 -0 -0 -0 -0 -0 -0 -0 -0 -0 -0 -0 -0 -0 -0 -0 -0 -0 -0
nan nan nan nan nan nan nan nan nan nan nan nan nan nan nan nan nan nan nan nan nan nan nan nan nan nan nan nan nan nan -33 -11 -1 -1 -0 -0 -0 -0 -0 -0 -0 -0 -0 -0 -0 -0 -0 -0 -0 -0 -0 -0 -0 -0 -0 -0 -0 -0 -0 -0 -0 -0 -0 -0 -0 -0 -0 -0 -0 -0 -0 -0 -0 -0 -0 -0 -0 -0 -0 -0 -0 -0 -0 -0 -0 -0
nan nan nan nan nan nan nan nan nan nan nan nan nan nan nan nan nan nan nan nan nan nan nan nan nan nan nan nan nan nan -36 -9 -1 -1 -0 -0 -0 -0 -0 -0 -0 -0 -0 -0 -0 -0 -0 -0 -0 -0 -0 -0 -0 -0 -0 -0 -0 -0 -0 -0 -0 -0 -0 -0 -0 -0 -0 -0 -0 -0 -0 -0 -0 -0 -0 -0 -0 -0 -0 -0 -0 -0 -0 -0 -0 -0
nan nan nan nan nan nan nan nan nan nan nan nan nan nan nan nan nan nan nan nan nan nan nan nan nan nan nan nan nan nan -30 -5 -0 -0 -0 -0 -0 -0 -0 -0 -0 -0 -0 -0 -0 -0 -0 -0 -0 -0 -0 -0 -0 -0 -0 -0 -0 -0 -0 -0 -0 -0 -0 -0 -0 -0 -0 -0 -0 -0 -0 -0 -0 -0 -0 -0 -0 -0 -0 -0 -0 -0 -0 -0 -0 -0
nan nan nan nan nan nan nan nan nan nan nan nan nan nan nan nan nan nan nan nan nan nan nan nan nan nan nan nan nan nan -35 -24 -5 -5 -3 -2 -0 -0 -0 -0 -0 -0 -0 -0 -0 -0 -0 -0 -0 -0 -0 -0 -0 -0 -0 -0 -0 -0 -0 -0 -0 -0 -0 -0 -0 -0 -0 -0 -0 -0 -0 -0 -0 -0 -0 -0 -0 -0 -0 -0 -0 -0 -0 -0 -0 -0
nan nan nan nan nan nan nan nan nan nan nan nan nan nan nan nan nan nan nan nan nan nan nan nan nan nan nan nan nan nan nan nan nan nan nan nan -13 -13 -0 -0 -0 -0 -0 -0 -0 -0 -0 -0 -0 -0 -0 -0 -0 -0 -0 -0 -0 -0 -0 -0 -0 -0 -0 -0 -0 -0 -0 -0 -0 -0 -0 -0 -0 -0 -0 -0 -0 -0 -0 -0 -0 -0 -0 -0 -0 -0
nan nan nan nan nan nan nan nan nan nan nan nan nan nan nan nan nan nan nan nan nan nan nan nan nan nan nan nan nan nan nan nan nan nan nan nan nan nan -3 -0 -0 -0 -0 -0 -0 -0 -0 -0 -0 -0 -0 -0 -0 -0 -0 -0 -0 -0 -0 -0 -0 -0 -0 -0 -0 -0 -0 -0 -0 -0 -0 -0 -0 -0 -0 -0 -0 -0 -0 -0 -0 -0 -0 -0 -0 -0
nan nan nan nan nan nan nan nan nan nan nan nan nan nan nan nan nan nan nan nan nan nan nan nan nan nan nan nan nan nan nan nan -18 -18 -0 -7 -0 -0 -0 -0 -0 -0 -0 -0 -0 -0 -0 -0 -0 -0 -0 -0 -0 -0 -0 -0 -0 -0 -0 -0 -0 -0 -0 -0 -0 -0 -0 -0 -0 -0 -0 -0 -0 -0 -0 -0 -0 -0 -0 -0 -0 -0 -0 -0 -0 -0
nan nan nan nan nan nan nan nan nan nan nan nan nan nan nan nan nan nan nan nan nan nan nan nan nan nan nan nan nan nan nan nan nan nan nan -15 -2 -2 -0 -0 -0 -0 -0 -0 -0 -0 -0 -0 -0 -0 -0 -0 -0 -0 -0 -0 -0 -0 -0 -0 -0 -0 -0 -0 -0 -0 -0 -0 -0 -0 -0 -0 -0 -0 -0 -0 -0 -0 -0 -0 -0 -0 -0 -0 -0 -0
nan nan nan nan nan nan nan nan nan nan nan nan nan nan nan nan nan nan nan nan nan nan nan nan nan nan nan nan nan nan nan nan nan nan nan nan -24 -24 -14 -12 -12 -1 -1 -0 -0 -0 -0 -0 -0 -0 -0 -0 -0 -0 -0 -0 -0 -0 -0 -0 -0 -0 -0 -0 -0 -0 -0 -0 -0 -0 -0 -0 -0 -0 -0 -0 -0 -0 -0 -0 -0 -0 -0 -0 -0 -0
nan nan nan nan nan nan nan nan nan nan nan nan nan nan nan nan nan nan nan -32 -32 -43 nan nan nan nan nan nan nan nan nan -50 -39 -39 -22 nan nan nan nan nan nan nan nan nan nan nan -2 -0 -0 -0 -0 -0 -0 -0 -0 -0 -0 -0 -0 -0 -0 -0 -0 -0 -0 -0 -0 -0 -0 -0 -0 -0 -0 -0 -0 -0 -0 -0 -0 -0 -0 -0 -0 -0 -0 -0
nan nan nan nan nan nan nan nan nan nan nan nan nan nan nan nan nan nan nan -47 -47 nan nan nan nan nan nan nan nan nan -33 -4 -9 -9 -28 nan nan nan nan nan nan nan nan nan nan nan -14 -1 -1 -11 -0 -0 -0 -0 -0 -0 -0 -0 -0 -0 -0 -0 -0 -0 -0 -0 -0 -0 -0 -0 -0 -0 -0 -0 -0 -0 -0 -0 -0 -0 -0 -0 -0 -0 -0 -0
nan nan nan nan nan nan nan nan nan nan -14 nan nan nan -31 nan nan nan nan nan nan nan nan nan nan nan nan nan nan nan -14 -6 -32 -32 nan nan nan nan nan nan nan nan nan nan nan nan -31 -31 -31 nan nan -53 -21 -21 -0 -0 -0 -0 -0 -0 -0 -0 -0 -0 -0 -0 -0 -0 -0 -0 -0 -0 -0 -0 -0 -0 -0 -0 -0 -0 -0 -0 -0 -0 -0 -0
nan nan nan nan nan nan nan nan nan nan -18 -23 nan nan nan nan nan nan -15 -20 -20 nan nan nan nan nan nan -57 -46 -46 -32 -24 nan nan nan nan nan nan nan nan nan nan nan nan nan -63 -71 nan nan nan nan -31 -0 -0 -0 -0 -0 -0 -0 -0 -0 -0 -0 -0 -0 -0 -0 -0 -0 -0 -0 -0 -0 -0 -0 -0 -0 -0 -0 -0 -0 -0 -0 -0 -0 -0
nan nan nan nan nan nan nan nan nan nan -5 nan nan nan -4 -4 -5 -5 -9 -9 -9 -6 -6 -5 -5 -5 nan -39 -40 -40 nan nan nan nan nan nan nan nan nan nan nan -22 -36 -54 -54 -74 -70 nan nan nan nan -4 -0 -0 -0 -0 -0 -0 -0 -0 -0 -0 -0 -0 -0 -0 -0 -0 -0 -0 -0 -0 -0 -0 -0 -0 -0 -0 -0 -0 -0 -0 -0 -0 -0 -0
-38 nan -39 -26 -26 nan nan nan -2 -2 -1 -1 -4 -4 -5 -9 -13 -13 -5 -4 -4 -4 -4 -7 -7 -8 -7 -8 -21 -21 nan nan nan nan nan -12 nan nan nan nan nan -20 -21 -32 -32 -49 nan nan nan nan nan -0 -0 -0 -0 -0 -0 -0 -0 -0 -0 -0 -0 -0 -0 -0 -0 -0 -0 -0 -0 -0 -0 -0 -0 -0 -0 -0 -0 -0 -0 -0 -0 -0 -0 -0
-24 nan nan -0 -0 -1 -2 -1 -0 -0 -1 -1 -1 -1 -5 -13 -14 -14 -9 -6 -6 -4 -6 -6 -6 -5 -2 -1 nan nan nan nan nan nan -3 -4 -30 -30 nan -42 -42 -15 -22 nan nan nan nan nan nan nan -0 -0 -0 -0 -0 -0 -0 -0 -0 -0 -0 -0 -0 -0 -0 -0 -0 -0 -0 -0 -0 -0 -0 -0 -0 -0 -0 -0 -0 -0 -0 -0 -0 -0 -0 -0
nan nan -2 -0 -0 -0 -0 -0 -0 -0 -0 -1 -1 -1 -1 -4 -7 -7 -7 -5 -5 -3 -3 -2 -2 -1 -1 -3 nan nan nan nan nan nan -4 -5 -12 -12 nan -36 -36 nan nan nan nan nan nan nan nan nan nan -0 -0 -0 -0 -0 -0 -0 -0 -0 -0 -0 -0 -0 -0 -0 -0 -0 -0 -0 -0 -0 -0 -0 -0 -0 -0 -0 -0 -0 -0 -0 -0 -0 -0 -0
nan nan -0 -0 -0 -0 -1 -1 -2 -2 -1 -1 -2 -2 -2 -5 nan nan -5 -3 -3 -1 -1 -1 -1 -1 nan nan nan nan nan nan nan nan -7 nan nan nan nan nan nan nan nan nan nan nan nan nan nan nan nan -0 -0 -0 -0 -0 -0 -0 -0 -0 -0 -0 -0 -0 -0 -0 -0 -0 -0 -0 -0 -0 -0 -0 -0 -0 -0 -0 -0 -0 -0 -0 -0 -0 -0 -0
nan -1 -2 -4 -4 -2 -1 -5 -4 -4 -6 -9 -7 -7 nan nan nan nan -1 -1 -1 -1 -2 -2 -2 nan nan nan nan nan nan nan nan nan nan -20 nan nan nan nan nan nan nan nan nan nan nan nan nan nan nan -0 -0 -0 -0 -0 -0 -0 -0 -0 -0 -0 -0 -0 -0 -0 -0 -0 -0 -0 -0 -0 -0 -0 -0 -0 -0 -0 -0 -0 -0 -0 -0 -0 -0 -0
nan nan nan nan nan -15 -11 -18 -26 -26 -26 -28 nan nan nan nan nan nan -0 -0 -0 -3 nan nan nan nan nan nan nan nan nan nan nan nan nan -7 -3 -3 nan nan nan nan nan nan nan nan nan nan nan nan nan -0 -0 -0 -0 -0 -0 -0 -0 -0 -0 -0 -0 -0 -0 -0 -0 -0 -0 -0 -0 -0 -0 -0 -0 -0 -0 -0 -0 -0 -0 -0 -0 -0 -0 -0
nan nan nan nan nan nan nan nan nan nan nan nan nan nan nan nan nan nan -7 nan nan nan nan nan nan nan nan nan nan nan nan nan nan nan nan -1 -8 -8 nan nan nan nan nan nan nan nan nan nan nan nan nan -0 -0 -0 -0 -0 -0 -0 -0 -0 -0 -0 -0 -0 -0 -0 -0 -0 -0 -0 -0 -0 -0 -0 -0 -0 -0 -0 -0 -0 -0 -0 -0 -0 -0 -0
nan nan nan nan nan nan nan nan nan nan nan nan nan nan nan nan nan nan nan nan nan nan nan nan nan nan nan nan nan nan nan nan nan nan -20 -2 -15 -15 nan nan nan nan nan nan nan nan nan nan nan nan nan nan -0 -0 -0 -0 -0 -0 -0 -0 -0 -0 -0 -0 -0 -0 -0 -0 -0 -0 -0 -0 -0 -0 -0 -0 -0 -0 -0 -0 -0 -0 -0 -0 -0 -0
nan nan nan nan nan -0 -0 -0 -0 -0 nan nan nan nan nan nan nan nan nan nan nan nan nan nan nan nan nan nan nan nan nan nan -31 -31 -7 -3 nan nan nan nan nan nan nan nan nan nan nan nan nan nan nan nan -0 -0 -0 -0 -0 -0 -0 -0 -0 -0 -0 -0 -0 -0 -0 -0 -0 -0 -0 -0 -0 -0 -0 -0 -0 -0 -0 -0 -0 -0 -0 -0 -0 -0
-0 -0 -0 -0 -0 -0 -0 -0 -0 -0 -0 -0 -2 -2 nan nan nan nan nan nan nan nan nan -1 -1 nan nan -4 nan nan nan -22 -21 -21 -18 -3 -9 -9 nan nan nan nan nan nan nan nan nan nan nan nan nan nan nan nan -0 -0 -0 -0 -0 -0 -0 -0 -0 -0 -0 -0 -0 -0 -0 -0 -0 -0 -0 -0 -0 -0 -0 -0 -0 -0 -0 -0 -0 -0 -0 -0
-0 -0 -0 -0 -0 -0 -0 -0 -0 -0 -0 -0 -0 -0 nan nan nan nan -3 -1 -1 -12 -3 -1 -1 -3 -2 -4 nan nan nan -15 -39 -39 nan nan -4 -4 nan nan nan nan nan nan nan nan -0 nan nan nan nan nan nan nan -0 -0 -0 -0 -0 -0 -0 -0 -0 -0 -0 -0 -0 -0 -0 -0 -0 -0 -0 -0 -0 -0 -0 -0 -0 -0 -0 -0 -0 -0 -0 -2
nan -1 -0 -0 -0 -0 -0 -0 -0 -0 -0 -0 -0 -0 nan nan nan nan -0 -6 -6 -8 -3 -1 -1 -2 -2 -2 nan nan nan -16 nan nan nan nan -4 -4 nan nan nan nan nan nan nan nan nan nan nan nan nan nan nan nan nan -0 -0 -0 -0 -0 -0 -0 -0 -0 -0 -0 -0 -0 -0 -0 -0 -0 -0 -0 -0 -0 -0 -0 -0 -0 -0 -0 -0 -0 -0 -2
nan nan nan nan nan -8 nan nan -0 -0 -0 -0 -0 -0 -1 nan nan nan -9 -16 -16 -4 -1 -1 -1 -1 -1 nan nan nan nan nan nan nan nan -10 -6 -6 nan nan nan nan nan nan nan nan nan nan nan nan nan nan nan nan nan nan nan nan nan -0 -0 -0 -0 -0 -0 -0 -0 -0 -0 -0 -0 -0 -0 -0 -0 -0 -0 -0 -0 -0 -0 -0 -0 -2 -2 -3
nan nan nan nan nan nan nan nan nan nan -0 -0 -0 -0 -20 nan nan nan nan -13 -13 -4 -1 -1 -1 -1 -1 -1 -2 -2 nan nan nan nan -29 -2 -12 -12 nan nan nan nan nan nan nan nan nan nan nan nan nan nan nan nan nan nan nan nan nan nan nan nan -0 -0 -0 -0 -0 -0 -0 -0 -0 -0 -0 -0 -0 -0 -0 -0 -0 -0 -0 -0 -1 -2 -2 -3
nan nan nan nan nan nan nan nan nan nan nan nan nan nan -21 -10 -17 -17 -25 -28 -28 -13 -1 -1 -1 -1 -0 -0 -0 -0 -0 nan nan nan -11 -9 -10 -10 -22 -20 -20 -18 -24 nan nan -14 nan nan nan nan nan nan nan nan nan nan nan nan nan nan nan nan nan -0 -0 -0 -0 -0 -0 -0 -0 -0 -0 -0 -0 -0 -0 -0 -0 -0 -0 -0 -0 -1 -1 -1
nan nan nan nan nan nan nan nan nan nan nan nan nan nan nan -15 -4 -4 -19 nan nan -30 -12 -3 -3 -4 -4 -3 -1 -1 nan nan -23 -23 -0 -10 -5 -5 -12 -15 -15 -11 -18 -16 -16 -15 -11 nan nan nan nan nan nan nan nan nan nan nan nan nan nan nan nan nan nan nan nan -0 -0 -0 -0 -0 -0 -0 -0 -0 -0 -0 -0 -0 -0 -0 -0 -1 -1 -1
nan nan nan nan nan nan nan nan nan nan nan nan nan nan -12 -27 -36 -36 -30 nan nan nan nan -14 -14 -10 -7 -4 -3 -3 nan nan -12 -12 -0 -4 -4 -4 -5 -7 -7 -6 -7 -6 -6 -7 nan -7 -7 -4 nan nan nan nan nan nan nan nan nan nan nan nan nan nan nan nan nan nan nan nan nan -0 -0 -0 -0 -0 -0 -0 -0 -0 -0 -0 -0 -0 -0 -0
nan nan nan nan nan nan nan nan nan nan nan nan -20 -20 -16 nan nan nan nan nan nan nan nan nan nan nan -13 -9 -0 -0 nan nan -19 -19 -0 -1 -2 -2 -2 -4 -4 -4 -3 -3 -3 -4 -5 -3 -3 -0 -0 nan nan nan nan nan nan nan nan nan nan nan nan nan nan nan nan nan nan nan nan nan nan nan -0 -0 -0 -0 -0 -0 -0 -0 -0 -0 -0 -0
nan nan nan nan nan nan nan nan nan nan nan nan -24 -24 nan nan nan nan nan nan nan nan nan nan nan nan nan nan nan nan nan nan -22 -22 -0 -4 -2 -2 -1 -3 -3 -4 -2 -2 -2 -2 -3 -2 -2 -0 -0 nan nan nan nan nan nan nan nan nan nan nan nan nan nan nan nan nan nan nan nan nan nan nan -0 -0 -0 -0 -0 -0 -0 -0 -0 -0 -0 -0
nan nan nan nan nan nan nan nan nan nan nan nan nan nan nan nan nan nan nan nan nan nan nan nan nan nan nan nan nan nan nan nan nan nan -21 -29 -23 -23 -4 -3 -3 -2 -2 -1 -1 -1 -1 -1 -1 -0 -0 nan nan nan nan nan nan nan nan nan nan nan nan nan nan nan nan nan nan nan nan nan nan nan -0 -0 -0 -0 -0 -0 -0 -0 -0 -0 -0 -0
nan -8 nan nan nan nan nan nan nan nan nan nan nan nan nan nan nan nan nan nan nan nan nan nan nan nan nan nan nan nan nan nan nan nan nan nan nan nan nan nan nan -12 -10 -5 -5 -2 -2 -1 -1 -1 nan nan nan nan nan nan nan nan nan nan nan nan nan nan nan nan nan nan nan nan -0 -0 nan nan nan nan nan nan nan nan nan -0 -0 -0 -0 -0
-9 -5 nan nan nan nan nan nan nan nan nan nan nan nan nan nan nan nan nan nan nan nan nan nan nan nan nan nan nan nan nan nan nan nan nan nan nan nan nan nan nan nan nan nan nan -10 -3 -2 -2 -3 -1 nan nan nan nan nan nan nan nan nan nan nan nan nan nan nan nan nan -0 -0 nan nan nan nan nan nan nan nan nan nan nan nan nan nan nan -0
-4 nan nan nan nan nan nan nan nan nan nan nan nan nan nan nan nan nan nan nan nan nan nan nan nan nan nan nan nan nan nan nan nan nan nan nan nan nan nan nan nan nan nan nan nan nan -8 -5 -5 -3 -0 nan nan nan nan nan nan nan nan nan nan nan nan nan nan nan nan nan nan nan nan nan nan nan nan nan nan nan nan nan nan nan nan nan nan nan
-2 -7 nan nan nan nan nan nan nan nan -4 -15 nan nan nan nan nan nan nan nan nan nan nan nan nan nan nan nan nan nan nan nan nan nan nan nan nan nan nan nan nan nan nan nan nan nan -9 nan nan -4 nan nan nan nan nan nan nan nan -0 nan nan nan nan nan nan nan nan nan nan nan nan nan nan nan nan nan nan nan nan nan nan nan nan nan nan nan
-0 -7 nan nan nan nan nan nan nan nan nan nan nan nan nan nan nan nan nan nan nan nan nan nan nan nan nan nan nan nan nan nan nan nan nan nan nan nan nan nan nan nan nan nan nan nan nan -5 -5 nan nan nan nan nan nan nan nan nan nan nan nan nan nan nan nan nan nan nan nan nan -0 nan nan nan nan nan nan nan nan nan nan nan nan nan nan nan
-4 nan nan nan nan nan nan nan nan nan nan nan nan nan nan nan nan nan nan nan nan nan nan nan nan nan nan nan nan nan nan nan nan nan nan nan nan nan nan nan nan nan nan nan nan nan nan nan nan nan nan nan nan nan nan nan nan nan nan nan nan nan nan nan nan nan nan nan nan nan nan nan nan nan nan nan nan nan nan nan nan -0 nan nan nan nan
-9 nan nan nan nan nan nan nan nan nan nan nan nan nan nan nan nan nan nan nan nan nan nan nan nan nan nan nan nan nan nan nan nan nan nan nan nan nan nan nan nan nan nan nan nan nan nan nan nan nan nan nan nan nan nan nan nan nan nan nan nan nan nan nan nan nan nan nan nan nan nan nan nan nan nan nan nan nan nan nan nan nan nan nan nan nan
nan nan nan nan nan nan nan nan nan nan nan nan nan nan nan nan nan nan nan nan nan nan nan nan nan nan nan nan nan nan nan nan nan nan nan nan nan nan nan nan nan nan nan nan nan nan nan nan nan nan nan nan nan nan nan nan nan nan nan -0 -0 nan nan nan nan nan nan nan nan nan nan nan nan nan nan nan nan nan nan nan nan nan nan nan nan nan
nan nan nan nan nan nan -2 -4 nan nan nan nan nan nan nan nan nan nan nan nan nan nan nan nan nan nan nan nan nan nan nan nan nan nan nan nan nan nan nan nan nan nan nan nan nan nan nan nan nan nan nan nan nan nan nan nan nan nan nan -0 -0 nan nan nan nan nan nan nan nan nan nan nan nan nan nan nan nan nan nan nan nan nan nan nan nan nan
nan nan nan nan nan nan nan nan nan nan nan nan -8 -8 nan nan nan nan nan nan nan nan nan nan nan nan nan nan nan nan nan nan nan nan nan nan nan nan nan nan nan nan nan nan nan nan nan nan nan nan nan nan nan nan nan nan nan nan nan nan nan nan nan nan nan nan nan nan nan nan nan nan nan nan nan nan nan nan nan nan nan nan nan nan nan nan
nan nan nan nan nan nan nan nan nan nan nan nan nan nan nan nan nan nan nan nan nan nan nan nan nan nan nan nan nan nan nan nan nan nan nan nan nan nan nan nan nan nan nan nan nan nan nan nan nan nan nan nan nan nan nan nan nan nan nan nan nan nan nan nan nan nan nan nan nan nan nan nan nan nan nan nan nan nan nan nan nan nan nan nan nan nan
nan nan nan nan nan nan nan nan nan nan nan nan nan nan nan nan -0 -0 nan nan nan nan nan nan nan nan nan nan nan nan nan nan nan nan nan nan nan nan nan nan nan nan nan nan nan nan nan nan nan nan nan nan nan nan nan nan nan nan nan nan nan nan nan nan nan nan nan nan nan nan nan nan nan nan nan nan nan nan nan nan nan nan nan nan nan nan
nan nan nan nan nan nan nan nan nan nan nan nan nan nan nan nan nan nan nan nan nan nan nan nan nan nan nan nan nan nan nan nan nan nan nan nan nan nan nan nan nan nan nan nan nan nan nan nan nan nan nan nan nan nan nan nan nan nan nan nan nan nan nan nan nan nan nan nan nan nan nan nan nan nan nan nan nan nan nan nan nan nan nan nan nan nan
nan nan nan nan nan nan nan nan nan nan nan nan nan nan nan nan nan nan nan nan nan nan nan nan nan nan nan nan nan nan nan nan nan nan nan nan nan nan nan nan nan nan nan nan nan nan nan nan nan nan nan -0 nan nan nan nan nan nan nan nan nan nan nan nan nan nan nan nan nan nan nan nan nan nan nan nan nan nan nan nan nan nan nan nan nan nan
Wind_Speed
0 1 1 1 1 2 3 3 4 4 5 5 5 4 5 5 6 6 7 7 7 6 6 6 6 7 8 12 14 17 18 19 20 20 20 20 20 20 20 20 20 21 21 21 21 21 22 22 22 22 22 21 21 20 19 19 18 18 19 19 19 19 19 19 20 20 20 20 20 20 20 21 21 21 21 21 22 22 22 22 23 23 24 24 25 25
1 1 1 2 2 2 3 3 3 4 4 5 5 5 5 4 4 4 5 5 5 5 5 5 6 6 7 9 13 16 18 19 20 20 20 20 20 20 20 20 20 20 20 21 21 21 22 22 22 22 22 21 21 20 19 19 19 19 19 19 19 19 19 19 20 20 20 20 20 20 20 21 21 21 21 21 21 21 22 22 23 24 24 25 25 25
1 1 1 1 2 2 3 3 3 3 4 5 5 5 5 5 5 4 4 4 5 5 5 5 6 6 7 8 12 15 17 19 19 20 20 20 20 20 20 20 20 20 20 21 21 22 22 22 22 22 22 21 21 21 20 20 19 19 19 19 19 19 19 20 20 20 21 21 21 21 21 21 21 21 21 21 21 21 22 22 23 24 24 25 25 25
1 1 1 1 1 2 3 3 3 3 3 4 5 5 5 5 5 5 5 5 5 5 5 5 6 6 6 7 9 13 16 18 19 19 19 19 19 19 19 19 20 20 21 21 21 21 21 21 21 21 21 21 21 21 21 21 20 20 20 19 19 20 20 20 20 21 21 21 22 21 21 20 20 20 20 20 21 21 22 22 23 24 24 25 25 25
1 1 1 1 1 2 2 2 3 3 4 4 5 5 4 4 4 5 5 5 5 5 5 5 5 5 5 5 8 11 15 17 18 18 18 18 18 18 19 19 20 20 21 21 21 21 21 21 21 21 21 21 22 22 22 21 21 21 21 21 21 21 21 20 20 21 21 21 21 21 20 20 20 20 20 20 21 21 22 22 23 24 24 24 24 25
1 1 1 1 2 2 2 3 3 4 4 4 4 4 4 4 4 4 4 4 5 5 4 4 4 5 5 5 7 10 13 15 16 16 17 17 17 18 18 19 19 20 20 20 21 21 21 21 21 21 22 22 22 22 21 21 20 20 21 22 22 22 22 21 21 21 21 21 21 20 20 20 20 20 20 21 21 21 22 22 23 23 24 24 24 24
2 1 1 2 2 2 3 3 3 3 3 3 4 4 4 3 3 4 4 4 4 4 4 3 3 3 4 5 7 9 10 12 13 14 15 16 17 17 18 18 19 19 20 20 20 21 21 22 22 22 22 22 22 21 21 20 20 20 21 22 23 23 22 22 21 21 20 20 20 20 20 20 20 20 21 21 21 22 22 22 23 23 23 24 24 24
3 2 2 2 3 3 3 3 3 3 3 3 4 4 4 3 3 3 4 3 3 2 2 2 2 2 3 3 5 6 6 7 8 9 11 12 13 14 16 17 18 18 19 20 21 21 22 22 23 23 23 23 22 21 21 20 20 20 21 22 23 23 23 22 21 21 20 20 20 20 20 21 21 21 21 22 22 22 22 22 22 22 23 23 24 24
3 3 3 3 3 3 3 3 3 3 3 3 3 4 4 4 3 3 3 2 2 1 1 2 2 3 3 3 3 4 6 7 7 7 8 8 9 10 13 14 16 17 18 19 20 21 22 22 23 23 23 22 22 21 21 21 21 21 22 23 23 23 23 22 21 21 20 20 20 21 21 21 21 22 22 22 22 22 22 22 22 22 23 23 24 24
3 4 3 3 3 3 3 4 4 4 3 3 3 3 3 4 4 4 3 3 2 2 1 2 3 3 3 3 3 4 7 8 9 10 10 9 10 11 12 12 13 15 17 19 20 21 22 22 22 22 22 22 21 21 21 21 22 22 23 23 23 23 22 21 21 20 20 21 21 21 21 22 22 22 22 22 22 22 22 21 22 22 22 23 24 24
3 3 3 3 3 3 3 3 4 3 2 2 2 2 2 2 3 3 4 4 3 2 2 2 2 3 4 4 4 4 5 5 6 7 8 9 10 11 11 12 12 14 16 17 18 19 20 21 21 21 21 20 20 20 21 21 21 22 22 22 22 22 21 21 20 20 20 21 21 21 22 22 22 22 22 22 22 22 22 21 22 22 22 23 23 24
3 3 2 3 3 2 2 3 2 2 2 2 2 3 2 2 1 2 3 4 4 3 3 2 2 3 3 4 4 4 3 3 3 3 4 5 6 7 8 9 10 11 13 14 15 16 18 19 19 19 19 19 19 19 20 20 21 21 22 22 21 21 20 20 20 20 21 21 21 22 22 22 23 23 23 22 22 22 22 22 22 22 23 23 23 24
3 2 2 3 2 2 2 2 2 2 2 2 3 4 3 2 1 1 2 3 3 3 3 3 3 3 3 3 3 3 3 3 3 3 3 3 4 4 5 6 6 7 7 8 8 10 14 15 16 16 17 17 18 19 19 20 20 21 21 21 21 20 20 20 20 20 21 21 22 22 23 23 23 23 23 22 22 22 22 22 22 23 23 23 23 23
3 3 3 3 3 2 2 2 3 3 3 3 3 3 3 2 1 1 2 3 3 3 3 4 4 4 3 3 2 2 2 3 3 4 4 4 4 4 4 5 5 5 4 5 5 6 10 11 11 11 14 15 16 17 18 19 20 21 21 21 21 20 20 20 21 21 22 22 22 22 23 23 23 23 23 23 23 23 23 23 23 23 23 23 23 23
4 3 4 4 3 3 2 2 3 4 4 3 2 2 2 2 2 2 3 3 3 3 3 4 4 4 4 3 2 2 3 3 4 5 5 5 4 4 4 4 4 4 4 4 5 6 8 7 7 7 9 11 13 15 17 18 20 21 21 21 21 21 21 21 21 22 22 22 22 23 23 23 23 23 23 23 23 23 23 23 23 23 23 23 23 23
4 4 4 4 3 3 2 2 3 3 4 3 3 2 3 3 3 3 3 3 3 3 3 4 5 5 4 3 2 2 4 4 5 5 5 5 4 4 4 4 4 4 4 4 4 4 5 5 5 5 7 11 14 18 20 20 21 21 21 21 21 21 21 22 22 22 22 22 22 23 23 23 23 23 23 23 23 23 23 22 22 22 22 22 23 23
3 3 3 3 3 3 3 3 3 3 3 3 3 2 3 3 3 3 3 3 3 3 3 4 5 6 5 3 3 3 5 5 5 5 5 5 4 3 3 3 4 4 4 4 4 4 4 4 5 5 7 12 16 20 21 21 21 21 21 21 21 21 22 22 22 22 22 22 22 22 23 23 23 23 23 22 22 22 22 22 22 22 22 22 23 23
2 2 2 3 3 3 3 3 3 3 3 3 3 3 3 3 3 3 2 2 3 3 4 4 4 4 5 4 3 4 5 5 5 5 5 5 4 3 2 2 3 4 5 5 4 4 4 5 5 7 9 16 19 21 22 22 21 22 21 21 21 21 22 22 22 22 22 22 22 22 22 22 22 22 22 22 22 22 22 22 22 22 22 22 22 23
3 3 3 3 4 4 3 3 4 4 4 4 4 4 4 3 3 2 2 3 3 3 4 4 4 4 4 4 4 4 4 4 4 5 5 6 5 4 3 4 5 5 6 5 5 5 5 5 7 10 15 18 20 21 22 22 22 22 22 22 21 22 22 22 22 22 22 22 22 22 22 22 22 22 22 22 22 22 22 22 22 22 22 22 22 22
3 3 4 4 4 4 4 4 4 5 5 5 5 4 4 4 3 3 3 3 3 3 3 3 4 4 4 5 5 5 5 4 4 4 5 5 5 5 4 5 5 6 6 5 5 4 5 5 7 10 14 17 19 21 22 22 22 22 22 21 22 22 22 22 22 22 22 22 22 22 22 22 22 22 22 22 22 22 22 22 22 22 22 22 22 22
3 3 3 4 4 4 4 4 4 5 6 5 5 4 4 3 3 3 3 3 3 3 3 3 4 4 4 4 5 5 4 4 4 4 4 4 4 3 3 4 4 5 5 5 5 5 5 5 6 7 11 16 19 21 22 22 22 22 22 22 22 22 22 22 22 22 22 22 22 22 22 22 22 22 22 22 22 22 22 22 22 22 22 22 22 22
3 3 3 3 3 3 4 3 4 5 6 5 4 4 3 3 3 3 4 3 4 4 4 4 3 3 3 4 5 5 4 3 3 3 3 3 4 4 3 4 4 5 5 5 5 5 5 6 6 7 11 16 19 21 22 21 21 21 21 22 22 22 22 22 22 22 22 22 22 22 22 22 22 22 22 22 22 21 21 21 21 21 22 22 22 22
3 3 3 3 3 3 3 4 4 4 5 4 3 3 2 2 3 3 4 4 4 3 3 3 3 3 3 3 4 4 3 2 2 2 3 4 5 5 4 4 4 5 5 5 5 6 6 6 7 8 11 16 19 20 21 21 21 21 22 22 22 22 22 22 22 22 22 22 22 22 22 22 22 22 22 22 22 21 21 21 21 22 22 22 22 22
3 3 3 4 4 4 3 3 3 3 3 2 2 2 2 2 2 2 2 3 3 3 3 3 3 4 3 4 4 4 3 2 2 2 2 3 4 4 3 4 5 6 6 6 6 7 7 7 7 7 8 13 16 18 20 20 21 21 22 22 22 22 22 22 22 22 22 22 22 22 22 22 22 22 22 22 22 21 21 21 22 22 22 22 22 22
4 4 4 5 6 6 6 6 6 5 4 3 3 3 3 4 4 3 3 3 3 3 4 4 4 4 4 4 4 4 3 2 2 3 3 4 4 4 3 3 5 6 7 7 7 7 7 7 7 6 6 9 13 17 19 20 21 21 22 22 22 22 22 22 22 22 22 22 22 22 22 22 22 22 22 22 22 21 21 21 22 22 22 22 21 21
9 9 9 10 11 13 13 12 12 12 11 7 5 5 4 4 4 4 4 4 4 4 5 5 5 4 4 4 4 4 3 2 2 3 3 4 4 4 3 3 4 6 7 7 7 7 7 7 7 6 5 6 10 14 17 19 21 22 22 22 22 22 22 22 22 22 22 22 22 22 22 22 22 22 22 22 22 22 21 21 22 22 21 21 20 19
15 15 16 16 16 16 16 16 16 16 17 14 12 9 6 5 4 4 5 5 5 5 5 5 5 5 4 4 4 4 4 3 2 2 3 3 4 4 4 4 5 5 6 6 7 7 8 8 7 6 5 5 6 10 16 18 20 21 21 21 22 22 22 22 22 22 22 22 22 22 22 22 22 22 22 22 22 22 21 22 21 21 20 18 16 14
16 16 17 16 16 15 15 16 16 17 17 17 16 14 9 5 4 5 5 5 5 4 4 5 5 4 4 4 4 4 4 3 2 2 2 3 4 4 4 4 4 5 6 6 7 7 8 7 6 5 5 5 6 8 13 16 18 19 19 20 21 21 22 22 22 22 22 22 22 22 22 22 22 22 22 22 22 22 21 21 21 20 17 14 10 8
14 14 14 14 14 13 13 13 14 16 17 17 16 14 9 5 4 4 4 4 4 4 4 4 4 4 4 4 4 3 3 3 2 3 3 4 4 4 4 4 4 4 5 6 6 6 5 4 4 4 4 7 7 7 9 12 13 14 15 18 19 20 21 22 22 22 22 22 22 22 22 22 22 22 22 22 22 21 21 22 20 17 13 10 8 7
9 9 9 10 10 9 9 9 10 12 15 15 14 12 7 4 2 2 2 3 3 4 4 4 4 4 4 4 4 3 3 3 3 4 4 4 4 4 4 4 4 4 5 5 6 6 5 4 3 4 5 7 7 7 6 7 8 8 9 12 14 16 19 21 21 22 22 22 22 22 22 22 22 22 22 22 22 21 21 21 19 14 9 7 7 7
6 6 5 6 6 6 6 6 7 8 10 11 10 9 6 3 2 2 2 3 3 3 4 4 4 4 4 4 4 3 3 3 4 5 5 4 4 4 4 4 4 4 4 4 5 6 6 5 5 5 6 7 7 6 6 6 6 6 6 8 9 12 16 19 20 20 20 20 21 21 22 22 22 22 22 22 22 21 21 21 19 14 8 7 7 7
5 5 5 5 5 4 4 5 5 5 6 6 6 5 5 4 3 2 2 2 2 2 3 3 4 4 4 4 3 3 3 4 5 6 6 4 4 4 4 4 4 4 4 4 4 5 5 6 6 6 6 6 6 6 6 6 6 6 6 7 7 9 14 16 17 17 16 18 19 20 20 21 21 21 22 22 22 22 22 22 19 14 9 7 7 7
6 5 5 5 5 4 4 4 4 4 4 4 4 4 4 4 4 4 3 2 2 2 2 3 3 4 4 4 3 3 3 4 5 7 8 5 4 3 3 4 4 5 4 4 4 4 4 5 6 7 7 6 6 5 5 6 6 6 6 7 7 8 11 12 12 12 13 14 15 16 17 18 19 20 21 21 21 21 22 22 21 17 12 8 7 7
6 6 5 5 5 4 4 4 4 4 4 4 4 4 3 3 4 4 3 3 2 2 2 2 3 3 4 4 4 3 3 4 6 8 9 6 4 4 4 4 5 5 5 5 5 5 4 5 6 7 7 6 5 5 5 5 6 6 5 6 6 7 8 9 9 10 10 11 10 11 12 13 15 16 18 19 20 21 22 22 22 20 17 11 8 7
5 5 5 5 4 4 5 4 5 5 5 4 4 4 4 3 3 3 3 3 3 2 2 2 2 3 3 3 4 4 4 4 6 9 9 6 5 4 4 4 5 5 6 6 6 5 5 6 7 8 7 7 6 5 4 4 5 5 5 6 6 6 7 7 8 9 9 9 9 8 9 9 10 12 14 16 18 20 22 22 22 21 20 17 13 10
4 5 5 5 5 5 5 5 6 6 5 5 4 4 4 3 3 3 3 3 3 3 3 3 2 2 3 3 3 4 5 5 6 8 8 6 5 4 4 4 5 5 6 6 6 6 6 7 8 8 8 8 7 6 5 5 5 6 6 7 7 7 7 7 7 8 8 9 9 9 9 9 9 10 11 16 18 20 21 21 21 20 20 19 17 15
5 5 5 5 5 5 5 6 6 6 5 5 4 4 4 4 3 3 3 3 3 3 4 4 4 4 4 3 4 4 5 5 6 6 7 5 4 3 4 4 5 5 5 6 6 7 7 7 8 8 8 7 6 6 6 7 7 7 7 7 7 7 7 7 7 7 8 9 9 9 9 9 9 10 11 15 17 18 18 19 19 19 20 19 19 18
5 5 5 5 5 5 5 6 6 6 5 5 4 4 4 4 3 3 3 3 3 4 4 4 4 5 6 6 5 4 4 5 5 5 5 4 3 3 3 4 4 5 4 5 5 6 7 7 7 8 7 6 7 7 8 8 8 8 8 8 7 7 6 7 7 7 7 8 9 10 10 10 9 9 10 11 11 11 12 12 13 15 17 17 18 18
5 5 5 6 5 5 6 6 6 6 5 5 4 4 3 3 3 3 3 3 3 3 3 3 4 4 6 6 6 5 5 4 4 4 4 3 2 2 3 4 4 4 4 4 4 5 6 6 6 6 7 7 7 8 7 6 7 8 9 8 7 6 6 7 7 7 7 8 9 10 10 9 9 9 9 9 9 9 9 10 11 12 13 12 13 15
5 5 5 6 6 6 6 7 7 6 5 5 4 3 3 3 3 3 3 3 3 3 3 3 3 3 4 4 4 4 4 4 4 4 3 3 2 2 2 3 3 4 4 4 4 4 5 5 6 6 7 7 7 7 7 6 7 8 10 8 7 6 8 8 7 7 7 7 8 9 9 9 9 9 9 9 9 9 8 8 9 10 10 9 8 9
6 5 5 5 5 5 6 6 6 6 6 5 4 3 3 3 3 3 4 4 4 3 3 3 3 3 3 3 3 3 3 3 4 4 3 3 3 2 2 3 3 4 4 4 4 5 5 5 6 6 6 7 7 8 8 8 9 10 11 9 8 8 9 8 7 7 7 8 8 9 10 10 10 10 10 10 9 8 8 8 8 9 9 7 6 6
6 5 5 5 4 5 5 5 6 6 6 5 4 3 3 3 3 3 3 4 4 4 4 4 4 4 4 4 4 3 3 4 4 4 4 4 4 3 3 3 3 4 4 5 5 5 5 6 6 6 6 6 6 7 7 8 8 9 9 9 9 9 9 8 7 6 7 8 8 8 10 10 9 10 10 10 9 9 8 8 9 9 9 7 6 5
5 5 5 5 4 5 5 6 6 6 5 5 4 4 3 2 2 2 3 4 4 5 5 5 4 4 4 4 4 4 4 4 4 4 5 5 5 4 4 4 4 4 4 4 5 5 5 5 5 5 5 5 5 6 7 7 8 8 7 8 8 8 6 6 6 7 7 8 8 8 8 8 9 9 9 9 9 8 8 9 10 10 9 7 6 5
5 5 5 5 5 4 5 5 5 5 5 5 5 4 4 3 2 2 3 3 4 5 5 4 4 4 4 4 5 5 5 4 4 4 4 6 6 6 5 5 4 4 3 3 4 5 5 5 4 4 4 4 4 5 6 6 6 6 7 7 7 7 6 6 7 8 8 8 8 8 8 8 9 9 9 9 8 8 8 8 8 8 8 7 6 6
5 5 6 6 5 5 4 5 5 5 5 5 5 4 4 4 3 3 3 3 4 5 4 4 4 5 5 5 5 5 5 4 4 4 4 6 8 8 6 5 5 4 4 3 3 4 4 4 5 4 4 3 4 4 5 6 6 7 7 8 8 7 6 7 7 8 8 8 8 8 9 9 9 8 8 8 8 8 8 8 8 8 8 7 6 6
5 5 6 6 6 6 6 6 6 5 5 5 5 4 4 4 3 3 3 4 4 4 4 4 4 4 5 5 5 5 6 6 6 6 5 5 5 5 5 6 6 5 5 4 4 4 4 4 4 5 4 4 4 4 4 5 5 6 7 8 8 7 6 6 7 7 8 8 8 9 9 9 9 8 7 8 8 8 8 8 8 8 8 8 7 7
6 6 6 6 6 6 6 6 6 6 6 5 5 5 5 4 4 3 3 4 4 4 4 4 4 4 5 5 6 6 7 8 8 8 7 7 6 5 5 5 6 6 5 5 5 5 5 5 4 4 3 3 3 3 3 4 5 6 7 7 7 7 6 6 7 7 7 8 9 9 10 9 8 8 8 7 7 7 7 7 8 8 7 7 7 7
6 6 7 7 7 7 7 6 6 6 6 6 5 5 5 5 5 5 4 4 4 4 5 5 4 4 5 5 6 7 8 8 8 8 8 8 7 7 7 6 5 5 5 5 5 5 5 5 5 4 3 2 2 3 4 4 5 6 6 6 7 7 7 7 7 7 7 8 9 10 10 8 8 8 8 8 7 7 7 7 7 7 7 7 7 7
6 6 6 6 7 7 7 7 6 6 6 6 5 5 4 5 6 6 4 4 4 4 4 5 5 5 5 5 6 7 8 7 7 6 7 7 8 8 8 7 6 6 5 4 4 4 4 4 5 5 4 3 2 2 4 4 5 5 5 5 6 6 6 7 7 7 7 8 9 10 9 7 7 7 7 8 8 8 8 7 7 7 6 6 6 7
6 6 6 6 6 7 7 7 7 6 6 6 5 5 4 5 5 5 4 4 4 4 4 4 4 5 5 6 6 7 7 7 6 7 7 7 7 8 8 8 8 8 6 5 4 4 3 3 3 3 3 2 1 3 4 5 5 5 5 5 5 5 6 6 7 7 8 8 9 9 9 7 6 6 6 7 8 8 8 8 7 7 7 6 7 7
6 6 6 6 6 6 7 7 6 6 6 6 5 5 4 5 5 5 4 4 4 4 4 3 4 4 5 6 7 7 7 6 6 7 7 7 7 8 8 8 9 9 8 8 7 6 6 5 4 3 3 4 6 6 4 5 6 6 6 6 6 6 6 6 6 7 8 8 8 8 8 7 6 6 6 6 7 8 7 8 8 8 8 7 7 8
Wind_Direction
331 286 277 248 268 276 272 263 264 272 281 284 283 281 276 272 268 265 262 262 262 262 262 263 263 265 268 272 275 278 281 284 286 289 291 293 295 296 298 300 301 303 305 307 309 310 311 310 310 309 308 306 305 304 303 303 302 302 301 301 301 300 300 299 298 298 299 300 300 300 300 300 300 302 304 307 309 310 311 311 310 309 307 306 304 303
300 272 254 217 224 245 266 263 261 264 273 278 280 280 279 277 276 274 271 267 264 262 261 264 264 264 265 269 274 277 280 282 285 287 289 291 293 295 298 300 303 305 308 310 311 312 312 311 310 309 308 307 305 304 303 302 301 300 300 301 301 302 302 301 301 301 302 301 301 300 300 301 303 306 308 309 310 310 311 310 309 307 306 304 303 302
298 289 276 238 233 245 268 274 268 260 259 269 275 279 283 285 286 286 285 281 275 269 265 265 267 269 267 270 275 278 280 282 284 286 288 290 293 296 299 303 305 308 311 312 313 313 312 311 310 309 307 307 305 304 302 301 300 299 300 301 302 303 304 305 305 306 306 305 304 304 304 305 307 309 309 309 309 310 310 309 308 306 305 304 302 301
287 286 285 283 267 261 263 275 278 275 269 275 280 285 289 289 288 286 283 281 280 278 274 270 270 272 273 274 276 279 281 283 285 287 289 292 295 299 303 306 309 311 312 313 313 313 312 311 310 309 308 307 306 304 303 302 301 301 302 303 304 305 307 308 309 310 310 309 308 307 307 307 307 308 308 308 309 309 309 308 307 306 305 303 303 302
285 282 286 297 292 282 273 282 289 292 291 289 289 289 289 285 283 283 283 281 280 280 279 276 272 270 273 274 278 281 283 285 288 290 293 296 300 304 307 309 311 312 313 314 314 313 312 312 310 310 309 308 307 306 305 305 305 306 307 307 308 309 310 312 313 313 313 311 309 308 307 307 307 306 307 308 308 309 309 308 306 305 305 304 303 304
284 283 295 299 295 293 294 294 295 297 298 295 291 287 283 279 278 280 283 282 281 280 280 278 274 271 271 274 280 284 287 291 294 297 300 303 306 308 310 312 313 314 315 315 315 315 314 313 312 311 310 309 308 308 308 309 310 310 310 310 310 311 313 314 315 315 313 311 309 307 307 306 306 306 307 307 308 308 307 307 306 305 305 305 305 305
290 294 305 298 294 291 293 291 289 289 290 292 292 290 286 280 277 275 274 275 277 280 283 283 283 282 280 282 287 291 294 298 301 304 305 307 309 311 314 316 317 318 319 319 318 317 316 314 313 311 310 309 309 309 310 311 311 310 309 309 310 312 314 315 315 314 312 309 308 307 306 306 306 307 307 307 307 307 306 306 305 305 305 305 305 305
295 298 300 294 293 293 290 285 281 276 271 280 288 293 292 288 282 278 274 275 276 280 289 297 303 306 302 299 300 302 302 303 303 304 306 309 313 317 321 323 323 323 322 321 319 317 315 314 312 311 310 309 309 310 310 311 310 309 309 310 312 314 315 315 315 313 311 308 307 306 306 306 306 307 307 307 307 306 306 306 305 305 305 305 305 305
289 290 290 284 283 287 291 285 277 269 263 267 274 283 291 293 291 290 291 296 297 302 314 324 323 319 312 308 309 308 305 302 303 306 312 319 327 330 330 330 327 325 322 319 317 315 313 312 311 310 309 310 310 310 311 312 312 312 312 313 314 314 315 314 313 312 309 308 307 307 307 307 307 307 307 307 307 307 306 306 306 306 305 305 305 304
279 278 282 277 269 268 276 281 278 269 260 259 260 265 276 290 298 303 309 311 315 321 331 331 323 318 312 308 306 304 303 305 311 319 330 337 339 337 332 328 323 319 316 315 314 312 311 311 311 311 310 311 311 312 313 314 315 315 314 314 314 313 313 313 312 310 309 308 307 307 308 308 308 308 308 308 308 308 308 307 307 306 306 305 304 304
278 275 275 275 270 261 255 265 271 275 280 279 273 268 264 279 299 311 315 312 314 317 318 316 317 316 314 311 308 304 304 310 322 334 343 341 336 330 324 319 315 313 312 313 312 312 311 310 310 310 311 311 312 314 314 315 315 314 313 312 311 311 312 311 310 309 308 308 308 309 309 309 310 310 310 310 310 310 309 308 308 307 306 305 304 303
277 276 273 271 272 272 265 269 279 293 317 320 312 306 296 284 292 309 309 307 310 312 311 306 304 306 305 307 309 311 317 326 336 342 341 330 322 317 314 313 313 312 313 312 311 310 308 307 307 308 309 311 312 313 314 313 312 311 309 309 309 310 310 310 310 309 309 310 310 311 311 311 311 311 312 312 312 311 310 309 308 307 305 304 303 302
272 271 269 268 269 272 277 289 299 306 309 304 300 297 294 290 287 289 290 296 303 309 312 310 309 305 299 300 307 319 335 340 336 330 324 316 310 308 309 310 311 312 312 310 307 304 303 303 305 307 309 310 312 312 312 310 309 308 308 308 309 311 312 311 311 311 312 312 313 313 313 313 313 314 314 314 313 312 311 310 308 307 305 303 302 302
273 268 267 269 271 270 268 274 281 287 293 291 286 282 283 291 297 296 294 298 303 310 312 310 311 311 308 310 315 330 347 340 333 326 323 319 315 311 308 306 304 303 302 300 297 296 299 304 307 309 311 312 312 311 310 310 309 309 310 311 313 314 315 315 315 315 315 315 315 315 315 315 315 316 316 315 314 313 311 310 308 306 304 303 303 302
270 271 273 273 272 269 266 269 278 288 298 302 305 306 310 312 312 310 307 307 310 313 314 310 309 310 311 314 325 345 354 343 335 328 322 316 308 301 296 295 294 293 293 293 293 296 301 308 310 311 311 311 311 311 312 312 313 314 314 315 316 317 317 318 318 317 317 317 317 317 318 318 318 318 317 316 315 313 311 309 308 306 305 304 304 303
272 276 279 279 277 276 274 280 291 301 313 325 334 336 330 323 320 319 315 312 314 319 324 321 318 315 313 314 334 358 358 345 334 323 317 310 302 292 284 288 292 294 294 294 296 299 305 307 307 306 306 310 312 314 315 317 317 317 317 318 319 319 319 319 319 319 319 319 320 320 320 320 320 319 318 317 315 313 311 309 308 307 306 305 304 304
282 285 286 288 292 296 300 302 307 316 329 337 338 335 327 321 319 319 317 317 320 325 328 327 323 320 318 325 349 8 4 345 330 318 311 305 298 288 280 287 297 303 307 307 307 307 311 312 312 311 310 313 316 317 318 319 319 319 319 320 320 320 320 320 321 321 321 322 323 323 323 322 321 320 318 316 315 313 311 310 309 308 307 306 305 304
300 303 306 310 316 321 327 330 337 342 343 338 332 327 320 313 311 310 313 321 326 328 327 324 320 318 318 326 345 3 359 340 326 316 311 307 303 297 292 303 313 319 323 323 321 320 318 316 316 315 314 317 318 319 320 320 321 321 321 321 322 322 322 322 323 323 324 325 325 324 324 323 321 319 318 316 315 313 312 311 310 309 309 307 306 305
331 336 339 339 340 341 344 349 350 346 341 335 331 326 320 315 312 312 316 324 326 326 324 321 322 324 326 328 334 340 342 333 323 316 314 314 315 319 328 337 336 333 329 324 321 318 316 312 311 313 315 317 319 320 321 321 322 323 323 323 323 324 324 325 325 326 326 326 326 325 323 322 321 319 317 317 316 315 314 313 313 312 311 310 309 308
350 356 360 354 348 345 347 351 346 339 329 324 321 320 319 323 327 331 334 332 329 326 328 330 335 337 337 328 324 324 330 332 326 319 316 316 319 325 340 347 342 334 325 318 313 311 311 310 311 314 316 318 319 320 322 323 324 324 325 325 325 326 327 327 328 328 327 327 326 324 323 322 320 320 319 319 318 318 317 316 315 314 313 312 311 311
1 4 7 357 348 341 337 337 330 321 315 314 316 319 324 331 336 339 339 337 339 344 351 349 344 338 330 321 317 317 323 333 333 326 317 314 316 324 342 349 340 328 318 313 312 312 313 312 312 313 315 318 319 321 323 324 325 326 327 327 328 329 329 329 329 328 328 326 325 324 323 322 322 321 321 321 321 320 319 318 318 317 316 315 314 313
6 357 345 337 330 323 321 316 313 311 312 318 326 337 342 345 345 346 350 355 357 357 357 347 332 317 309 307 306 307 316 334 335 327 316 311 314 324 343 345 334 324 316 315 316 317 316 314 312 312 314 317 320 322 324 325 327 328 329 330 331 331 331 330 329 328 327 326 325 325 324 323 323 323 323 323 322 322 321 320 319 318 317 316 315 314
1 343 326 319 314 312 314 313 312 314 321 335 348 358 357 354 351 353 1 7 5 357 346 326 312 305 302 304 304 306 318 336 340 333 318 314 321 330 343 339 331 324 320 321 322 321 318 315 313 312 314 318 321 323 326 328 329 330 331 332 332 332 331 330 329 328 327 327 326 326 325 325 325 325 324 324 324 323 322 321 320 319 318 317 316 316
353 343 333 327 324 325 325 326 329 333 342 8 25 27 14 6 1 1 9 15 9 356 338 328 324 324 320 322 319 317 321 343 357 354 333 324 325 331 333 334 330 327 324 325 324 321 317 314 312 312 313 319 322 325 328 330 332 332 333 333 332 332 331 330 329 329 328 328 327 327 326 326 326 326 325 325 325 324 323 322 321 320 319 319 318 317
358 354 348 347 353 358 1 360 359 1 8 34 47 39 20 12 8 8 13 17 9 358 347 343 339 336 329 332 329 323 318 342 4 3 345 331 326 325 321 329 330 329 325 325 324 321 317 314 313 314 316 321 325 329 331 333 333 333 333 333 332 332 331 331 330 330 330 329 328 328 328 327 327 327 327 326 326 325 324 323 322 321 321 320 320 319
8 6 6 8 12 15 16 14 12 12 15 25 34 34 22 13 9 7 8 10 5 356 349 344 340 335 330 332 330 326 320 335 357 2 350 335 326 322 319 328 331 328 323 323 323 322 318 316 316 319 323 324 328 331 333 334 334 333 333 333 333 332 332 332 332 331 331 330 330 330 329 329 328 328 328 327 327 326 326 325 324 323 323 323 322 321
11 11 12 16 20 23 23 20 17 15 14 17 21 24 23 16 12 8 4 2 358 352 346 342 337 333 330 331 330 325 319 328 345 355 349 333 324 319 321 328 329 327 322 321 322 321 319 318 319 321 325 324 327 331 333 334 333 333 333 333 333 333 333 333 333 332 332 332 331 331 330 330 330 329 329 328 328 327 327 326 325 325 325 325 324 321
11 13 15 20 25 28 27 24 20 16 14 14 17 21 24 22 16 8 1 357 352 347 343 339 335 331 328 326 324 319 314 320 327 333 338 330 321 317 321 325 327 325 322 320 319 319 318 317 318 319 323 326 328 330 331 332 332 332 332 332 333 333 333 333 333 333 333 332 332 331 331 330 330 330 329 329 328 328 327 327 326 326 327 327 324 319
7 10 14 18 22 25 26 24 20 17 14 13 15 18 24 26 20 8 357 352 347 342 338 335 331 326 320 316 314 311 313 316 318 324 335 327 319 314 317 321 323 325 325 321 319 318 318 315 316 320 324 328 329 329 328 330 330 330 330 331 332 332 332 332 333 333 333 332 332 331 331 331 330 330 329 329 328 328 328 328 328 328 328 326 321 315
360 2 7 10 13 16 19 21 18 14 11 11 12 13 17 24 22 6 348 345 343 340 334 331 328 324 320 318 317 318 320 320 323 329 336 327 319 315 317 319 322 328 333 328 324 322 319 318 323 328 329 329 329 327 325 327 327 327 327 329 330 330 331 331 332 332 332 331 331 330 330 330 330 329 329 329 328 328 329 329 330 330 329 324 318 314
351 352 355 358 359 2 8 14 13 9 6 5 4 2 1 2 358 345 339 344 342 336 328 326 325 325 327 325 326 326 325 321 326 332 336 325 317 314 318 318 323 331 342 339 331 324 321 322 326 331 333 329 326 324 324 324 325 326 326 326 326 327 328 330 330 330 330 330 330 330 330 330 330 330 330 329 329 329 330 331 332 332 329 323 318 315
350 350 354 354 354 356 3 7 4 359 354 352 349 345 341 339 335 330 333 338 337 332 323 320 321 323 326 323 321 320 317 312 321 328 332 322 313 311 316 317 322 329 340 340 331 322 317 319 322 327 330 327 325 323 323 324 325 326 326 326 324 323 326 327 328 328 328 328 328 329 329 329 330 330 330 330 330 330 331 332 333 333 331 324 318 315
352 353 354 353 352 352 356 355 350 344 339 336 332 330 331 330 327 326 327 330 330 327 321 319 319 320 318 313 310 308 306 301 315 325 331 324 316 313 318 320 323 327 331 331 325 316 309 311 315 318 322 322 322 321 322 324 326 327 326 325 321 320 323 325 326 326 326 326 326 327 328 328 329 330 331 331 331 331 331 332 333 333 333 326 319 316
353 353 352 349 346 343 346 343 339 335 331 329 328 326 326 321 320 322 325 324 321 317 311 311 313 314 313 311 310 308 303 298 313 323 332 328 321 317 321 324 327 329 330 328 325 320 311 312 314 316 316 318 319 319 321 324 326 326 324 321 318 317 319 323 324 324 324 325 324 324 326 327 329 330 330 330 331 331 331 332 332 333 332 329 324 319
352 352 349 345 342 341 341 339 336 333 333 332 330 329 324 320 318 319 322 322 319 312 298 289 288 292 298 303 308 310 305 303 316 326 332 330 326 321 322 327 331 333 331 328 327 325 319 318 317 318 316 316 317 318 321 323 324 323 320 318 317 316 318 320 321 322 322 323 323 324 326 327 328 329 330 330 330 330 331 331 331 331 332 330 328 324
353 351 348 344 342 341 342 339 336 336 334 333 331 328 322 320 320 319 318 316 317 316 311 296 279 265 259 271 284 293 296 301 314 323 329 330 330 326 325 330 334 335 331 327 327 325 321 318 318 318 318 318 317 318 320 323 324 323 321 320 320 319 318 320 320 321 322 323 325 327 328 328 329 328 327 328 329 329 330 330 330 330 330 330 329 327
358 354 348 345 343 341 339 337 335 335 333 331 328 324 321 319 316 314 310 309 311 315 315 308 297 280 265 255 258 268 282 294 307 317 326 331 334 333 328 329 333 335 332 328 326 324 321 318 318 319 320 319 318 317 320 323 325 325 324 323 323 321 320 321 322 322 322 324 326 327 328 328 328 327 325 327 328 329 329 329 329 329 329 329 328 327
1 357 350 346 343 341 337 335 333 331 330 327 323 319 316 312 306 301 299 303 307 310 311 309 304 296 290 283 277 273 279 288 298 310 326 335 341 340 333 329 331 333 331 325 322 320 319 318 319 320 319 316 314 314 316 320 322 322 321 320 319 319 320 322 323 324 324 325 326 327 328 328 327 327 326 328 329 330 329 329 329 329 328 328 327 326
1 356 349 346 344 342 338 334 332 329 325 321 317 313 311 306 300 296 297 304 307 308 304 299 297 296 295 294 295 296 298 301 309 321 336 342 344 339 335 330 327 326 324 320 318 317 317 316 317 317 316 314 314 314 315 316 317 318 318 318 319 321 323 324 325 326 327 327 328 328 328 328 328 328 327 328 329 328 327 325 325 326 326 326 325 325
359 353 344 344 343 341 337 333 331 328 325 322 321 320 321 317 314 313 315 318 318 316 306 298 292 290 292 297 303 311 318 320 327 333 339 337 331 323 327 324 321 319 321 320 320 319 317 313 310 308 308 309 310 312 314 315 317 319 321 322 324 325 327 326 326 327 330 329 329 328 327 328 328 329 329 328 327 325 322 320 319 319 320 320 321 322
355 349 342 339 337 336 333 329 327 327 328 330 333 335 332 330 329 329 330 333 332 328 324 324 321 319 317 316 313 311 316 313 317 321 320 317 312 306 307 311 313 317 323 324 323 322 318 313 308 306 305 305 306 307 308 310 313 317 320 320 318 316 318 321 325 329 332 330 328 327 327 327 329 329 328 326 322 318 314 311 310 311 313 315 316 317
351 345 338 334 332 331 329 328 328 330 332 335 336 332 322 321 325 330 336 339 338 336 337 340 342 342 338 331 323 315 309 307 309 313 312 309 307 305 301 303 309 318 326 325 323 321 317 312 308 304 303 305 306 306 306 306 310 313 317 314 312 312 313 319 327 332 332 329 327 326 328 328 327 327 325 322 318 314 311 310 310 311 313 315 316 315
345 338 331 328 326 326 326 330 333 336 337 336 333 326 316 311 315 327 336 338 338 338 340 343 344 342 340 335 331 326 318 307 303 307 311 307 304 302 302 303 308 317 328 327 323 318 314 310 303 296 292 296 298 299 299 303 307 309 310 311 315 319 321 327 330 331 329 327 325 325 327 326 324 321 319 316 314 313 313 313 313 314 315 313 313 313
338 335 332 331 328 327 329 335 338 338 336 333 329 325 317 316 324 335 343 340 338 339 343 344 344 343 344 340 335 330 326 319 314 314 316 318 319 319 316 315 315 318 328 324 319 316 313 309 300 289 283 285 288 291 293 298 303 307 310 315 319 321 319 320 323 325 324 323 323 324 324 323 321 318 315 315 314 315 316 317 317 317 316 314 312 311
338 337 337 336 334 333 337 339 338 335 332 331 330 327 322 328 337 348 352 345 343 345 348 350 351 350 347 341 337 333 331 333 336 338 333 329 330 331 331 330 330 328 325 313 303 299 303 302 299 295 291 288 284 285 289 295 302 309 314 320 322 320 315 315 318 321 321 321 321 321 322 322 320 318 316 317 318 318 318 318 318 318 317 317 316 315
343 342 342 339 337 336 339 340 339 336 334 335 336 337 337 340 344 350 352 353 353 352 352 359 2 358 347 341 339 339 340 342 343 344 342 337 335 336 339 340 338 331 321 308 292 280 273 277 282 289 298 296 289 282 280 293 305 314 319 323 324 322 319 319 320 321 320 319 318 319 320 320 319 318 316 316 316 316 314 314 314 315 315 315 316 316
346 344 343 341 339 338 339 340 340 341 341 342 345 348 349 347 347 349 355 358 358 354 352 359 3 360 347 343 342 344 345 345 343 342 341 340 339 339 341 340 335 328 317 306 295 283 272 265 263 266 277 286 289 289 290 304 315 319 320 322 323 324 324 324 323 322 320 318 317 317 319 321 320 318 315 314 312 311 311 312 311 311 311 312 314 315
346 344 342 340 339 339 339 340 342 344 345 344 346 349 352 351 355 359 357 355 355 355 357 359 357 353 346 344 345 347 348 346 342 339 338 338 340 341 341 338 333 326 317 306 297 288 277 268 258 247 233 233 257 285 305 318 322 322 320 320 322 324 324 322 322 321 319 316 315 315 318 319 318 316 313 312 312 311 312 312 311 310 309 310 313 315
345 344 342 341 340 339 340 340 342 343 344 343 344 346 348 350 358 2 357 351 351 355 0 358 353 348 346 344 345 348 350 346 342 338 337 339 339 339 338 338 336 333 325 315 306 295 282 273 261 245 217 205 223 279 310 319 321 321 318 320 322 323 321 320 319 319 318 315 314 314 314 313 310 308 307 309 310 310 312 312 312 311 311 312 314 315
345 344 343 342 342 341 341 340 340 341 341 341 344 346 347 351 355 357 352 349 350 353 356 354 350 348 347 347 349 350 351 347 343 340 340 340 340 339 338 338 339 339 337 335 335 333 325 312 290 265 231 241 307 328 323 322 322 322 323 324 325 324 321 319 318 318 318 315 313 312 312 309 307 305 306 308 309 310 311 313 314 315 315 316 317 317
345 344 344 344 344 343 341 339 338 339 340 342 345 349 351 353 354 353 351 351 350 349 347 346 347 348 350 351 352 352 351 347 343 341 340 340 340 339 339 339 342 343 344 344 346 347 348 346 340 331 320 344 356 358 340 330 327 327 328 329 328 326 321 318 316 315 315 313 311 310 310 310 310 312 313 312 311 312 314 316 317 317 318 319 320 319